Regional Weather Roundup
Issued by NWS Wakefield, VA

Home | Current Version | Previous Version | Text Only | Print | Product List | Glossary Off
Versions: 1 2 3 4 5 6 7 8 9 10 11 12 13 14 15 16 17 18 19 20 21 22 23 24 25 26 27

000
ASUS41 KAKQ 190314
RWRAKQ

REGIONAL WEATHER ROUNDUP
NATIONAL WEATHER SERVICE WAKEFIELD VA
1000 PM EST SAT FEB 18 2017

Note: "fair" indicates few or no clouds below 12,000 feet with no
significant weather and/or obstructions to visibility. * = Denotes
station may not report precipitation (e.g., rain,snow,etc.),
thunder or fog.

VAZ042-051-052>054-056-190400-
NORTHERN VIRGINIA

CITY           SKY/WX    TMP DP  RH WIND       PRES   REMARKS
WASH NATIONAL  CLOUDY    58  35  42 SW3       29.78R
DULLES         CLOUDY    59  31  34 SW6       29.78R
FORT BELVOIR   CLOUDY    54  36  51 CALM      29.78R
QUANTICO       CLOUDY    52  39  61 S6        29.79S
FREDERICKSBRG* CLOUDY    62  35  37 W6        29.78F
STAFFORD*      CLOUDY    61  31  33 S3        29.83S
WARRENTON      CLOUDY    56  30  37 CALM      29.79R
CULPEPER*      CLOUDY    60  35  38 SW5       29.80R
MANASSAS*      CLOUDY    52  38  58 S6        29.79R
LEESBURG*      CLOUDY    55  36  47 W7        29.79S
WINCHESTER     CLOUDY    55  32  41 S3        29.79S
FRONT ROYAL*   CLOUDY    63  32  31 SW6       29.79S
LURAY*         CLOUDY    61  34  36 W5        29.82R
$$

VAZ048-049-060>072-079>083-190400-
CENTRAL AND SOUTH CENTRAL VIRGINIA

CITY           SKY/WX    TMP DP  RH WIND       PRES   REMARKS
RICHMOND       CLOUDY    63  33  32 SW7       29.81F
CHESTERFIELD*  FAIR      64  28  25 W5        29.82F
PETERSBURG*    CLOUDY    60  32  35 CALM      29.82F
HANOVER        CLOUDY    65  31  28 SW3       29.82F
TAPPAHANNOCK*  CLOUDY    65  15  14 SW6       29.81S
QUINTON*       FAIR      64  33  31 W3        29.80F
CHARLOTTSVILLE CLOUDY    63  29  27 CALM      29.80F
GORDONSVILLE*  CLOUDY    63  32  31 SW5       29.79F
ORANGE*        CLOUDY    61  32  33 CALM      29.81S
LOUISA*        CLOUDY    64  36  34 S3        29.80F
BUMPASS*       FAIR      61  32  33 CALM      29.81S
FARMVILLE*     CLOUDY    62  32  33 CALM      29.79F
CREWE*         CLOUDY    64  34  33 CALM      29.81F
FORT PICKETT*  MOCLDY    63  23  21 SW8       29.81S
CHASE CITY*    CLOUDY    62  32  32 CALM      29.84R
CLARKSVILLE*   CLOUDY    61  41  48 W12G20    29.84R
SOUTH HILL*    CLOUDY    62  35  36 S10       29.90R
LAWRENCEVILLE* FAIR      63  32  31 SW5       29.83R
EMPORIA*       CLOUDY    61  34  36 CALM      29.86R
$$

VAZ088>098-190400-
SOUTHEAST VIRGINIA

CITY           SKY/WX    TMP DP  RH WIND       PRES   REMARKS
NORFOLK        MOCLDY    63  37  38 SW12      29.84R
VIRGINIA BEACH CLOUDY    62  34  35 SW10      29.84R
NORFOLK NAVAL  CLOUDY    65  35  33 SW10      29.85R
WEST POINT*    CLOUDY    62  32  32 SW7       29.83S
SALUDA*        FAIR      63  36  36 SW5       29.81S
NEWPORT NEWS   CLOUDY    62  37  39 SW10      29.83S
LANGLEY AFB    CLOUDY    63  37  38 S9        29.83R
FORT EUSTIS    CLOUDY    62  37  38 SW5       29.81S
WILLIAMSBURG*  CLOUDY    64  37  36 CALM      29.83F
HR EXEC AP*    FAIR      63  36  36 SW6       29.82F
FRANKLIN*      CLOUDY    62  36  38 S5        29.85S
US460-WAKEFLD  MOCLDY    61  37  41 S5        29.84S
$$

VAZ020-022-025-037-045-190400-
WEST CENTRAL AND SOUTHWEST VIRGINIA

CITY           SKY/WX    TMP DP  RH WIND       PRES   REMARKS
STAUNTON*      CLOUDY    56  31  38 CALM      29.84F
WAYNESBORO*    CLOUDY    60  27  28 W7        29.83F
HOT SPRINGS VA CLOUDY    50  23  34 NW12      29.88S
LYNCHBURG      CLOUDY    61  31  32 SW7       29.84S
DANVILLE       CLOUDY    59  38  45 SW9       29.87R
SOUTH BOSTON*  MOCLDY    63  31  30 SW7       29.84S
MARTINSVILLE   PTCLDY    55  36  47 CALM      29.90S
ROANOKE        CLOUDY    59  34  39 NW6       29.86S
BLACKSBURG     PTCLDY    50  34  55 CALM      29.91R
DUBLIN*        PTCLDY    49  34  56 SW6       29.90R
MARION*        CLOUDY    49  34  55 W8        29.95R
HILLSVILLE*    CLOUDY    49  33  53 CALM      29.89R
RICHLANDS*     CLOUDY    49  33  54 W3        29.93R
WISE*          CLOUDY    45  37  76 SW6       29.95S
ABINGDON*      CLOUDY    51  37  59 W5        29.95R
$$

MDZ021>025-VAZ099-100-190400-
SOUTHERN MARYLAND AND THE DELMARVA PENINSULA

CITY           SKY/WX    TMP DP  RH WIND       PRES   REMARKS
PATUXENT RIVER CLOUDY    63  35  35 SW10      29.78S
BAY BRIDGE APT CLOUDY    55  36  47 S6        29.77R
LEONARDTOWN    CLOUDY    63  32  31 SW7       29.80S
DOVER          CLOUDY    53  41  62 S8        29.73F
GEORGETOWN     PTCLDY    58  37  45 SW8       29.77S
EASTON         CLOUDY    54  37  53 SW3       29.81
CAMBRIDGE      PTCLDY    50  39  66 CALM      29.78S
SALISBURY      MOCLDY    54  37  52 SW8       29.78S
OCEAN CITY     CLOUDY    53  39  59 SW10      29.79S
WALLOPS ISLAND CLOUDY    56  40  55 SW6       29.80F
ACCOMACK*      CLOUDY    64  37  35 SW9G16    29.81S
$$

NCZ012>017-030>032-190400-
NORTH CENTRAL AND EASTERN NORTH CAROLINA

CITY           SKY/WX    TMP DP  RH WIND       PRES   REMARKS
ROANOKE RAPIDS FAIR      63  36  36 SW13      29.87R
RALEIGH        CLOUDY    60  44  55 W13G22    29.91R
ELIZABETH CITY MOCLDY    58  44  60 SW12      29.87S
AHOSKIE*         N/A     60  38  42 SW3       29.86S
EDENTON*       MOCLDY    60  43  53 S6        29.88S
CURRITUCK*     MOCLDY    60  43  53 S7        29.87S
KILL DEVIL HLS NOT AVBL
MANTEO         MOCLDY    54  44  69 SW10      29.90R
CAPE HATTERAS  MOCLDY    61  52  72 SW12      29.92F HAZE
TARBORO*       NOT AVBL
GOLDSBORO      CLOUDY    62  38  40 SW7       29.89R
WASHINGTON     MOCLDY    62  38  41 SW8       29.90S
GREENVILLE     CLOUDY    63  37  39 SW8       29.92S
NEW BERN       MOCLDY    60  43  53 SW7       29.93S
WILMINGTON     PTCLDY    57  47  69 SW5       29.94S
$$

VAZ048-190400-
ELSEWHERE

CITY           SKY/WX    TMP DP  RH WIND       PRES   REMARKS
HARRISBURG PA  CLOUDY    46  36  68 SE3       29.72R
BALTIMORE      MOCLDY    58  33  39 SW6       29.76R
ANNAPOLIS      CLOUDY    47  40  76 CALM      29.77R
ANDREWS AFB    CLOUDY    60  31  34 SW7       29.77R
PHILADELPHIA   CLOUDY    51  36  56 SW7       29.73S
HENDERSON NC   PTCLDY    59  33  38 SW10G16   29.87S
GREENSBORO     PTCLDY    51  44  77 SW8       29.89S
ROCKY MOUNT    CLOUDY    62  39  42 SW7       29.88F
$$

VAZ100-190400-
MARINE

STATION/POSITION TIME  TEMP    WIND        PRES    WAVE   SWELL
                       AIR SEA DIR/SP/G            HT/PER HT/PER
                 (UTC) (F)     (DEG/KT/KT) (MB)    (FT/S) (FT/S)
CAPE MAY NJ      0248   56 39  210/  8/ 11 1007.1F
LEWES DE         0248   61 40  240/  7/ 11 1007.6F
OCEAN-CITY-INLET 0248   51 43  220/  5/  6 1009.0S
WACHAPREAGUE VA  0248   60 46  230/  5/  8 1009.4F
THOMAS POINT MD  0300   50 40  230/  5/  6   N/A
GOOSES REEF MD   0300   49 40  190/  6/  8 1009.0    0
COVE POINT MD    0248   64     230/  8/ 12 1009.0R
SOLOMONS ISLAND  0248   58 42  230/ 11/ 13   N/A
BISHOPS HEAD MD  0248   48 42  180/  5/  6 1008.9F
PINEY POINT MD   0248          240/  6/  9   N/A
POTOMAC MD       0300   52 44  230/  8/  8 1007.8    0
CAMBRIDGE MD     0248   56 40  200/  6/  8 1007.6S
LEWISETTA VA     0248   63 43  250/  9/ 11 1008.6R
RAPPAHANNOCK LGT 0248          190/ 11/ 12 1010.1S
YORK RVR RNG VA  0248   60     230/ 15/ 16 1008.9S
YORKTOWN VA      0248   65 46  230/  9/ 12 1009.3F
JAMESTOWN VA     0300   60 47  210/  8/ 10   N/A
DOMINION TERM VA 0248   56     230/ 12/ 14 1010.3R
KIPTOPEKE VA     0248      47  210/  3/  5   N/A
CHES BAY BRIDGE  0248   63 44  230/ 15/ 16 1010.1R
CAPE HENRY VA    0248   64     210/  9/ 13   N/A
WILLOUBY STN VA  0248   64     210/ 17/ 18 1011.0R
S CRANEY ISL VA  0248   63     210/  8/ 11 1010.3R
CAPE HENRY BUOY  0242      46                N/A     1/ 6
OFFSHORE WE BUOY 0251      47                N/A     3/ 5
64NM E OF VA BCH 0250   54 51  220/ 17/ 19 1010.8R   4/ 6
DUCK PIER NC     0248   60 47  210/ 16/ 18 1011.0R
44100 DUCK FRF   0235      47                N/A     2/ 7
44056 DUCK FRF   0230      48                N/A     1/ 9
OREGON INLET NC  0248          210/ 17/ 19   N/A
HATTERAS NC      0248   60 55  230/  9/ 14 1012.7F
DIAMOND SHLS NC  0250   67 67  230/ 19/ 23 1013.0R   5/ 6   2/10
CAPE LOOKOUT NC  0300   60     200/ 10/ 12 1013.4F
$$




USA.gov is the U.S. government's official web portal to all federal, state and local government web resources and services.